Location: Lichtensteig
(47.3376°N, 9.0841°E)
Time: 00:33:10
(UTC+00:00)

Cosmos 2360 Rocket - Pass Details

Date: 03 March 2021
Orbit: 832 x 846 km, 71.0° (Epoch: 14 April)

Event Time Altitude Azimuth Distance (km) Brightness Sun altitude
Rises 18:37:02 0° 201° (SSW) 3,375 5.5 -15.2°
Reaches altitude 10° 18:39:27 10° 200° (SSW) 2,447 4.8 -15.6°
Maximum altitude 18:45:03 79° 115° (ESE) 862 2.1 -16.5°
Drops below altitude 10° 18:50:44 10° 29° (NNE) 2,473 4.4 -17.5°
Sets 18:53:12 0° 29° (NNE) 3,413 5.2 -17.9°
